Flag for U.S.A. Weather past 2 weeks in Abilene, Texas, U.S.A.

Now
47 °F

Clear.


Feels Like: 40 °F
Forecast: 46 / 73 °F
Wind: 20 mph from South

Location: Abilene Regional Airport


UV Index: 7 (High)

Visibility: 10 mi


Pressure: 29.93 "Hg

Humidity: 34%

Dew point: 20 °F

Location of AbileneLocation

Historic Weather in Abilene

°F

Abilene temperature yesterday

Maximum temperature yesterday: 64 °F (at 4:52 PM)
Minimum temperature yesterday: 29 °F (at 4:52 AM)
Average temperature yesterday: 48 °F

Past Weeks' High & Low Weather Summary

 TemperatureHumidityPressure
High94 °F (Apr 10, 3:52 PM)97% (Apr 7, 2:52 AM)30.34 "Hg (Apr 7, 2:52 AM)
Low29 °F (Apr 15, 4:52 AM)7% (Apr 10, 5:52 PM)29.47 "Hg (Apr 13, 5:52 PM)
Average65 °F44%29.89 "Hg
* Reported Apr 1 6:52 AM — Apr 16 6:52 AM, Abilene, Weather by CustomWeather, © 2014

Note: Actual official high and low records may vary slightly from our data, if they occured in-between our weather recording intervals... More about our weather records

Advertising

Historic Weather Conditions — Data for Previous 24 hours

 ConditionsComfort  
Time TempWeatherWind HumidityBarometerVisibility
6:52 AM
Apr 16
47 °FClear.17 mph34%29.93 "Hg10 mi
5:52 AM48 °FClear.15 mph33%29.93 "Hg10 mi
4:52 AM50 °FClear.16 mph30%29.92 "Hg10 mi
3:52 AM50 °FClear.15 mph30%29.92 "Hg10 mi
2:52 AM50 °FClear.13 mph30%29.95 "Hg10 mi
1:52 AM51 °FClear.20 mph28%29.97 "Hg10 mi
12:52 AM51 °FClear.18 mph28%29.99 "Hg10 mi
11:52 PM
Apr 15
51 °FClear.16 mph27%30.01 "Hg10 mi
10:52 PM52 °FClear.13 mph24%30.02 "Hg10 mi
9:52 PM52 °FClear.12 mph23%30.03 "Hg10 mi
8:52 PM55 °FSunny.8 mph19%30.04 "Hg10 mi
7:52 PM62 °FSunny.10 mph14%30.05 "Hg10 mi
5:52 PM64 °FSunny.12 mph12%30.09 "Hg10 mi
4:52 PM64 °FSunny.13 mph13%30.12 "Hg10 mi
3:52 PM63 °FSunny.9 mph13%30.15 "Hg10 mi
2:52 PM61 °FSunny.5 mph14%30.19 "Hg10 mi
1:52 PM59 °FSunny.9 mph16%30.23 "Hg10 mi
12:52 PM57 °FSunny.6 mph17%30.27 "Hg10 mi
11:52 AM53 °FSunny.7 mph20%30.30 "Hg10 mi
10:52 AM51 °FSunny.No wind22%30.32 "Hg10 mi
9:52 AM48 °FSunny.5 mph27%30.34 "Hg10 mi
8:52 AM41 °FSunny.3 mph41%30.34 "Hg10 mi
Weather by CustomWeather, © 2014

See weather overview